ANZ332 NZCH-NZWN

Flight info

Callsign ANZ332
Flight time 0h 37m
Altitude 21000
Route GRETA Y393 WARDS
Aircraft B772/H-SDE2E3FGHIJ5LORVWXY/LB1D1

Departure

Time 2026-05-06 06:20
Airport Christchurch International Airport (NZCH)

Arrival

Time 2026-05-06 06:58
Airport Wellington International Airport (NZWN)
Time Latitude Longitude Altitude Speed Heading
2026-05-06 05:53 -43.48630 172.54068 113 ft 0 kts 206°
2026-05-06 06:11 -43.48615 172.54078 110 ft 4 kts 207°
2026-05-06 06:12 -43.48592 172.54095 110 ft 4 kts 212°
2026-05-06 06:12 -43.48572 172.54115 109 ft 3 kts 222°
2026-05-06 06:12 -43.48559 172.54137 108 ft 4 kts 261°
2026-05-06 06:12 -43.48562 172.54162 110 ft 4 kts 306°
2026-05-06 06:13 -43.48578 172.54189 110 ft 2 kts 310°
2026-05-06 06:13 -43.48579 172.54190 110 ft 0 kts 310°
2026-05-06 06:15 -43.48577 172.54187 110 ft 3 kts 310°
2026-05-06 06:15 -43.48546 172.54138 110 ft 9 kts 309°
2026-05-06 06:16 -43.48511 172.54066 110 ft 9 kts 289°
2026-05-06 06:16 -43.48524 172.53983 110 ft 9 kts 235°
2026-05-06 06:16 -43.48585 172.53903 110 ft 17 kts 220°
2026-05-06 06:16 -43.48674 172.53799 111 ft 17 kts 220°
2026-05-06 06:17 -43.48764 172.53697 112 ft 17 kts 220°
2026-05-06 06:17 -43.48853 172.53594 111 ft 17 kts 220°
2026-05-06 06:17 -43.48946 172.53497 111 ft 17 kts 219°
2026-05-06 06:17 -43.49032 172.53390 113 ft 17 kts 225°
2026-05-06 06:18 -43.49109 172.53271 115 ft 17 kts 231°
2026-05-06 06:18 -43.49195 172.53171 118 ft 17 kts 201°
2026-05-06 06:18 -43.49296 172.53093 120 ft 17 kts 219°
2026-05-06 06:18 -43.49385 172.52989 123 ft 17 kts 217°
2026-05-06 06:19 -43.49476 172.52889 127 ft 17 kts 222°
2026-05-06 06:19 -43.49507 172.52748 133 ft 15 kts 271°
2026-05-06 06:19 -43.49499 172.52600 125 ft 15 kts 279°
2026-05-06 06:19 -43.49434 172.52593 127 ft 9 kts 40°
2026-05-06 06:20 -43.49412 172.52618 125 ft 19 kts 40°
2026-05-06 06:20 -43.49107 172.52969 115 ft 98 kts 40°
2026-05-06 06:20 -43.48405 172.53793 218 ft 156 kts 41°
2026-05-06 06:20 -43.47544 172.54799 890 ft 171 kts 35°
2026-05-06 06:21 -43.46512 172.55563 1864 ft 166 kts 23°
2026-05-06 06:21 -43.45413 172.56268 2309 ft 188 kts 22°
2026-05-06 06:21 -43.44129 172.57077 2538 ft 216 kts 22°
2026-05-06 06:21 -43.42705 172.57977 2930 ft 235 kts 22°
2026-05-06 06:22 -43.41195 172.58940 3529 ft 244 kts 22°
2026-05-06 06:22 -43.39602 172.59961 4054 ft 260 kts 22°
2026-05-06 06:22 -43.37928 172.61038 4751 ft 269 kts 21°
2026-05-06 06:22 -43.36212 172.62144 5500 ft 275 kts 21°
2026-05-06 06:23 -43.34471 172.63268 6339 ft 278 kts 21°
2026-05-06 06:23 -43.32756 172.64499 7025 ft 282 kts 33°
2026-05-06 06:23 -43.31404 172.66519 7570 ft 289 kts 49°
2026-05-06 06:23 -43.30502 172.67876 7913 ft 293 kts 40°
2026-05-06 06:24 -43.28412 172.70273 9003 ft 292 kts 36°
2026-05-06 06:24 -43.27351 172.71417 9539 ft 293 kts 37°
2026-05-06 06:24 -43.25746 172.73156 10260 ft 297 kts 37°
2026-05-06 06:24 -43.24077 172.74987 10496 ft 320 kts 37°
2026-05-06 06:25 -43.22296 172.76967 10986 ft 334 kts 38°
2026-05-06 06:25 -43.20478 172.79013 11763 ft 341 kts 38°
2026-05-06 06:25 -43.16802 172.83197 14000 ft 344 kts 37°
2026-05-06 06:26 -43.14954 172.85311 14976 ft 348 kts 36°
2026-05-06 06:26 -43.13136 172.87393 15835 ft 355 kts 36°
2026-05-06 06:26 -43.11222 172.89581 16728 ft 361 kts 36°
2026-05-06 06:26 -43.09277 172.91803 17633 ft 367 kts 35°
2026-05-06 06:27 -43.07302 172.94057 18515 ft 373 kts 35°
2026-05-06 06:27 -43.05294 172.96346 19256 ft 379 kts 35°
2026-05-06 06:27 -43.03257 172.98668 20056 ft 383 kts 35°
2026-05-06 06:27 -43.01224 173.00986 20783 ft 381 kts 35°
2026-05-06 06:28 -42.99182 173.03311 21032 ft 382 kts 35°
2026-05-06 06:28 -42.97126 173.05646 21015 ft 383 kts 35°
2026-05-06 06:28 -42.95038 173.07898 21018 ft 381 kts 32°
2026-05-06 06:28 -42.92908 173.10047 21025 ft 381 kts 32°
2026-05-06 06:29 -42.90766 173.12167 21025 ft 381 kts 31°
2026-05-06 06:29 -42.88621 173.14287 21012 ft 380 kts 31°
2026-05-06 06:29 -42.86485 173.16411 21018 ft 380 kts 32°
2026-05-06 06:29 -42.84356 173.18537 21017 ft 380 kts 32°
2026-05-06 06:30 -42.82227 173.20668 21018 ft 379 kts 32°
2026-05-06 06:30 -42.80101 173.22798 21024 ft 379 kts 32°
2026-05-06 06:30 -42.77975 173.24928 21027 ft 379 kts 32°
2026-05-06 06:30 -42.75873 173.27033 21029 ft 380 kts 32°
2026-05-06 06:31 -42.73742 173.29164 21026 ft 381 kts 32°
2026-05-06 06:31 -42.71605 173.31300 21022 ft 381 kts 32°
2026-05-06 06:31 -42.69466 173.33436 21033 ft 381 kts 32°
2026-05-06 06:31 -42.67323 173.35570 21032 ft 382 kts 32°
2026-05-06 06:32 -42.65177 173.37704 21031 ft 382 kts 32°
2026-05-06 06:32 -42.63029 173.39838 21032 ft 383 kts 32°
2026-05-06 06:32 -42.60878 173.41972 21030 ft 383 kts 32°
2026-05-06 06:32 -42.58721 173.44111 21021 ft 383 kts 32°
2026-05-06 06:33 -42.56598 173.46213 21031 ft 382 kts 32°
2026-05-06 06:33 -42.54446 173.48343 21029 ft 382 kts 32°
2026-05-06 06:33 -42.52303 173.50463 21036 ft 382 kts 32°
2026-05-06 06:33 -42.50154 173.52588 21034 ft 382 kts 32°
2026-05-06 06:34 -42.48005 173.54709 21027 ft 382 kts 32°
2026-05-06 06:34 -42.45860 173.56825 21033 ft 381 kts 32°
2026-05-06 06:34 -42.43714 173.58940 21033 ft 381 kts 32°
2026-05-06 06:34 -42.41568 173.61052 21040 ft 381 kts 32°
2026-05-06 06:35 -42.39425 173.63162 21043 ft 381 kts 32°
2026-05-06 06:35 -42.37276 173.65274 21045 ft 382 kts 32°
2026-05-06 06:35 -42.35130 173.67382 21043 ft 382 kts 32°
2026-05-06 06:35 -42.32981 173.69491 21039 ft 382 kts 32°
2026-05-06 06:36 -42.30831 173.71599 21044 ft 378 kts 32°
2026-05-06 06:36 -42.28738 173.73654 21030 ft 363 kts 32°
2026-05-06 06:36 -42.26760 173.75594 21018 ft 350 kts 32°
2026-05-06 06:36 -42.24795 173.77513 21028 ft 347 kts 32°
2026-05-06 06:37 -42.22842 173.79416 21038 ft 345 kts 32°
2026-05-06 06:37 -42.20893 173.81317 21054 ft 346 kts 32°
2026-05-06 06:37 -42.18940 173.83219 21038 ft 347 kts 32°
2026-05-06 06:37 -42.17045 173.85062 21037 ft 347 kts 32°
2026-05-06 06:38 -42.15087 173.86964 21057 ft 347 kts 32°
2026-05-06 06:38 -42.13128 173.88869 21051 ft 348 kts 32°
2026-05-06 06:38 -42.11164 173.90776 21048 ft 348 kts 32°
2026-05-06 06:38 -42.09198 173.92683 21045 ft 348 kts 32°
2026-05-06 06:39 -42.07232 173.94588 21050 ft 348 kts 32°
2026-05-06 06:39 -42.05264 173.96494 21050 ft 348 kts 32°
2026-05-06 06:39 -42.03301 173.98394 21052 ft 348 kts 32°
2026-05-06 06:39 -42.01331 174.00300 21048 ft 349 kts 32°
2026-05-06 06:40 -41.99356 174.02207 21055 ft 349 kts 32°
2026-05-06 06:40 -41.97411 174.04086 21055 ft 349 kts 32°
2026-05-06 06:40 -41.95439 174.05988 21053 ft 349 kts 32°
2026-05-06 06:40 -41.93463 174.07893 21053 ft 349 kts 32°
2026-05-06 06:41 -41.91488 174.09795 21048 ft 349 kts 32°
2026-05-06 06:41 -41.89514 174.11694 21046 ft 349 kts 32°
2026-05-06 06:41 -41.87539 174.13595 21059 ft 349 kts 33°
2026-05-06 06:41 -41.85566 174.15492 21047 ft 349 kts 33°
2026-05-06 06:42 -41.83590 174.17390 21053 ft 349 kts 33°
2026-05-06 06:42 -41.81618 174.19296 21037 ft 349 kts 33°
2026-05-06 06:42 -41.79643 174.21208 21065 ft 349 kts 33°
2026-05-06 06:42 -41.77673 174.23114 21057 ft 349 kts 33°
2026-05-06 06:43 -41.75726 174.24993 21048 ft 349 kts 32°
2026-05-06 06:43 -41.73765 174.26885 21049 ft 345 kts 33°
2026-05-06 06:43 -41.71940 174.28939 21066 ft 343 kts 41°
2026-05-06 06:43 -41.70274 174.31233 21071 ft 343 kts 43°
2026-05-06 06:44 -41.68636 174.33533 21045 ft 340 kts 43°
2026-05-06 06:44 -41.67546 174.35027 21069 ft 338 kts 42°
2026-05-06 06:44 -41.65987 174.37130 21065 ft 335 kts 42°
2026-05-06 06:44 -41.64367 174.39299 21055 ft 330 kts 42°
2026-05-06 06:45 -41.62746 174.41454 20859 ft 326 kts 41°
2026-05-06 06:45 -41.61872 174.42616 20524 ft 323 kts 41°
2026-05-06 06:45 -41.60290 174.44718 19825 ft 317 kts 41°
2026-05-06 06:45 -41.58738 174.46781 19021 ft 313 kts 41°
2026-05-06 06:46 -41.57221 174.48794 18231 ft 308 kts 40°
2026-05-06 06:46 -41.55709 174.50799 17411 ft 303 kts 41°
2026-05-06 06:46 -41.54229 174.52767 16600 ft 298 kts 40°
2026-05-06 06:46 -41.52770 174.54702 15835 ft 292 kts 40°
2026-05-06 06:47 -41.51473 174.56763 15068 ft 293 kts 58°
2026-05-06 06:47 -41.50922 174.59357 14462 ft 292 kts 86°
2026-05-06 06:47 -41.51298 174.61960 14066 ft 282 kts 114°
2026-05-06 06:47 -41.52448 174.64014 13391 ft 278 kts 142°
2026-05-06 06:48 -41.54159 174.65176 12535 ft 276 kts 171°
2026-05-06 06:48 -41.56042 174.65163 11747 ft 267 kts 202°
2026-05-06 06:48 -41.57561 174.64045 11240 ft 246 kts 230°
2026-05-06 06:48 -41.58428 174.62182 10581 ft 234 kts 259°
2026-05-06 06:49 -41.58432 174.60075 9882 ft 227 kts 289°
2026-05-06 06:49 -41.57587 174.58343 9211 ft 224 kts 320°
2026-05-06 06:49 -41.56239 174.57254 8399 ft 231 kts 331°
2026-05-06 06:49 -41.54778 174.56381 7816 ft 227 kts 336°
2026-05-06 06:50 -41.53236 174.55957 7252 ft 229 kts 356°
2026-05-06 06:50 -41.51659 174.56401 6629 ft 237 kts 20°
2026-05-06 06:50 -41.50358 174.57795 5936 ft 248 kts 52°
2026-05-06 06:50 -41.49576 174.59857 5320 ft 250 kts 67°
2026-05-06 06:51 -41.49140 174.62093 4705 ft 250 kts 85°
2026-05-06 06:51 -41.49161 174.64425 4030 ft 251 kts 92°
2026-05-06 06:51 -41.49279 174.66742 3455 ft 249 kts 92°
2026-05-06 06:51 -41.49402 174.69030 2908 ft 245 kts 91°
2026-05-06 06:52 -41.49513 174.71262 2465 ft 236 kts 89°
2026-05-06 06:52 -41.49608 174.73408 2117 ft 227 kts 88°
2026-05-06 06:52 -41.49693 174.75521 2130 ft 230 kts 87°
2026-05-06 06:52 -41.49496 174.77522 2116 ft 205 kts 55°
2026-05-06 06:53 -41.48644 174.78828 2103 ft 175 kts 22°
2026-05-06 06:53 -41.47597 174.79549 2103 ft 159 kts
2026-05-06 06:53 -41.46598 174.79736 2108 ft 136 kts 353°
2026-05-06 06:53 -41.45663 174.79804 2108 ft 136 kts 353°
2026-05-06 06:54 -41.44716 174.79872 2115 ft 137 kts 353°
2026-05-06 06:54 -41.43772 174.79940 2111 ft 134 kts 354°
2026-05-06 06:54 -41.42869 174.80006 2093 ft 128 kts 353°
2026-05-06 06:54 -41.41988 174.80066 1960 ft 128 kts 353°
2026-05-06 06:55 -41.41117 174.80112 1832 ft 121 kts 352°
2026-05-06 06:55 -41.40280 174.80178 1498 ft 123 kts 355°
2026-05-06 06:55 -41.39467 174.80254 1235 ft 111 kts 355°
2026-05-06 06:55 -41.38711 174.80306 1129 ft 113 kts 353°
2026-05-06 06:56 -41.37907 174.80299 951 ft 115 kts 356°
2026-05-06 06:56 -41.37124 174.80350 877 ft 116 kts 359°
2026-05-06 06:56 -41.36301 174.80446 740 ft 118 kts
2026-05-06 06:56 -41.35524 174.80509 544 ft 107 kts 359°
2026-05-06 06:57 -41.34791 174.80523 387 ft 101 kts 358°
2026-05-06 06:57 -41.34105 174.80604 275 ft 100 kts
2026-05-06 06:57 -41.33430 174.80646 100 ft 100 kts 358°
2026-05-06 06:57 -41.32799 174.80679 31 ft 78 kts
2026-05-06 06:58 -41.32434 174.80709 39 ft 26 kts
2026-05-06 06:58 -41.32324 174.80715 43 ft 14 kts
2026-05-06 06:58 -41.32223 174.80720 46 ft 14 kts
2026-05-06 06:58 -41.32127 174.80728 50 ft 0 kts